Lid_Strength_Index
7 7 7 7 7 7 7 7 6 1 1 1 2 2 3 2 2 2 2 4 4 3 2 3 4 5 7 8 10 13 13 13 13 13 13 13 13 14 13 13 13 12 13
8 8 8 8 8 7 7 8 7 3 1 1 1 1 1 1 1 2 2 3 4 4 3 4 5 5 8 10 11 12 13 13 13 13 14 14 14 14 14 13 13 14 13
10 9 9 9 9 9 8 7 7 6 1 1 1 4 4 4 2 3 3 3 4 4 4 4 5 6 7 9 10 11 11 13 15 14 13 15 14 15 15 14 14 15 14
11 10 10 10 10 9 9 8 7 7 5 1 2 2 3 3 2 2 2 3 4 4 4 5 5 6 7 7 9 9 9 8 11 13 14 16 14 13 16 15 15 15 15
12 11 11 10 9 9 9 9 8 7 6 4 1 2 2 2 4 2 3 4 5 4 4 5 6 7 8 7 8 9 9 9 10 11 12 14 15 15 14 17 15 16 15
11 10 9 8 8 8 8 8 9 8 8 6 3 3 2 2 5 5 3 5 6 5 5 5 6 7 8 8 7 8 9 10 10 11 12 13 14 15 15 16 16 17 17
10 9 9 8 8 8 8 7 7 7 7 7 7 3 2 3 5 4 3 4 5 6 6 6 7 8 8 8 8 9 9 9 11 12 12 13 14 14 15 16 16 18 16
10 9 8 8 8 8 8 8 7 7 6 6 6 6 4 2 3 4 3 4 5 5 5 6 7 8 8 8 9 9 9 10 12 13 13 14 14 14 14 15 16 17 18
10 9 9 8 8 8 8 8 8 7 7 6 6 6 6 4 2 3 3 4 5 5 6 6 8 7 8 9 9 11 12 12 13 14 14 15 14 14 15 14 15 17 20
10 9 8 8 9 8 7 8 8 8 7 6 6 6 5 4 2 3 4 5 7 7 7 7 8 9 10 10 11 12 12 13 14 13 14 15 14 15 15 14 16 16 17
8 8 8 8 8 7 7 8 8 7 6 5 5 6 6 5 5 5 7 7 8 8 8 9 10 10 11 11 12 13 13 14 14 14 14 15 15 15 16 15 16 16 16
7 8 9 8 8 9 8 7 8 7 7 7 6 6 6 6 6 8 8 8 8 7 8 9 10 11 12 13 13 14 14 14 15 15 14 15 14 14 15 16 16 16 16
9 8 8 9 9 9 9 9 8 8 7 7 7 7 6 6 7 7 6 7 7 8 9 10 11 12 13 13 13 13 13 14 14 14 15 14 14 14 15 15 16 16 16
9 9 10 9 10 9 9 9 8 8 8 8 8 7 7 7 7 7 8 8 9 9 11 12 12 13 13 13 13 13 13 13 14 13 13 13 14 15 15 15 16 16 17
12 12 12 10 10 10 10 10 10 9 9 9 9 9 8 9 9 9 10 10 12 11 12 12 13 13 12 12 13 13 13 13 14 14 14 15 15 14 14 15 16 17 17
13 13 12 11 12 12 12 12 12 11 9 9 10 9 10 10 11 11 11 11 12 11 12 12 12 11 11 10 11 13 15 14 14 15 16 16 15 15 14 14 13 14 16
13 14 13 13 13 13 12 12 10 10 10 10 10 10 10 11 11 11 11 12 12 12 12 11 11 12 11 10 11 12 14 15 16 17 17 17 16 16 17 15 13 13 11
14 15 14 14 15 14 12 11 11 11 11 11 11 10 11 11 12 12 12 12 12 12 12 12 12 12 11 11 12 14 16 17 17 17 18 18 18 18 15 16 16 15 15
13 13 13 14 13 13 12 12 11 11 11 12 12 11 12 12 13 14 14 14 13 14 14 14 14 14 13 12 13 16 17 17 18 18 18 17 17 14 13 14 16 15 15
13 13 13 12 13 12 12 12 12 12 12 12 12 11 12 12 13 13 13 13 14 14 14 15 15 13 15 13 14 16 17 19 17 17 17 14 15 12 11 13 15 17 17
12 12 12 13 13 12 12 13 13 13 13 12 12 13 13 13 14 15 15 15 15 16 17 18 18 18 17 16 13 13 16 17 16 16 17 16 13 12 11 12 16 16 14
12 12 13 13 12 12 13 14 14 13 13 13 13 14 13 13 14 15 16 16 17 19 20 20 20 19 19 14 13 13 13 14 16 16 16 16 12 12 13 14 13 12 13
12 12 12 13 13 13 13 14 14 13 14 14 15 15 15 16 17 18 19 19 20 20 20 20 20 20 18 18 14 13 13 13 14 14 13 13 13 14 15 14 13 14 17
12 12 12 13 13 13 13 13 13 13 15 17 18 18 18 19 19 18 18 19 20 20 20 20 20 20 19 18 17 15 16 14 14 15 17 16 16 16 16 16 16 16 15
13 12 13 13 13 13 13 14 14 15 17 17 18 18 19 19 19 19 20 20 20 19 20 20 19 19 19 17 14 14 15 16 15 16 18 19 19 19 18 17 16 15 15
15 15 14 14 14 14 14 15 16 16 17 18 19 19 19 19 19 19 18 13 13 13 14 14 16 16 14 13 13 13 13 14 14 19 20 21 20 19 17 17 17 16 16